Date String (YYYY-MM-DD hh:mm:ss) UTC,Instrument flags,Ambient pressure (hPa),Sample flow (lpm),Bypass flow (lpm),Sample temperature (°C),Ambient temperature (°C),ASC tube jacket temperature (°C),LED temperature (°C),Box temperature (°C),Sample RH (%),Span deviation,Mass concentration (μg/m³),Mass concentration (μg/m³),Mass concentration (μg/m³)
DateTimeUTC,F1_M11,P_M11,Q1_M11,Q2_M11,T1_M11,T2_M11,T3_M11,T4_M11,T5_M11,U1_M11,ZSPAN_M11,X2_M11,X0_M11,X1_M11
2022-04-16 04:00:00,,0827.0,5.00,0.00,27.1,26.2,00.0,36.1,28.8,08.3,0000.0,0004.47,0012.82,0002.93
2022-04-16 04:01:00,,0826.8,5.00,0.00,27.1,26.2,00.0,36.1,28.8,08.4,0000.0,0004.45,0012.62,0002.93
2022-04-16 04:02:00,,0826.9,5.00,0.00,27.1,26.2,00.0,36.1,28.8,08.3,0000.0,0004.52,0012.66,0002.94
2022-04-16 04:03:00,,0827.2,5.00,0.00,27.1,26.2,00.0,36.1,28.8,08.2,0000.0,0004.59,0013.05,0002.94
2022-04-16 04:04:00,,0826.9,4.99,0.00,27.1,26.1,00.0,36.1,28.8,08.4,0000.0,0004.62,0014.93,0002.95
2022-04-16 04:05:00,,0826.8,5.00,0.00,27.0,26.0,00.0,36.1,28.8,08.3,0000.0,0004.59,0015.27,0002.97
2022-04-16 04:06:00,,0826.8,5.01,0.00,27.0,26.0,00.0,36.0,28.8,08.3,0000.0,0004.66,0015.72,0002.99
2022-04-16 04:07:00,,0826.8,5.00,0.00,27.0,26.0,00.0,36.0,28.8,08.3,0000.0,0004.65,0015.61,0002.99
2022-04-16 04:08:00,,0826.8,5.00,0.00,27.0,26.0,00.0,36.0,28.8,08.4,0000.0,0004.62,0015.16,0002.99
2022-04-16 04:09:00,,0826.8,4.99,0.00,27.0,25.9,00.0,36.0,28.8,08.4,0000.0,0004.59,0015.14,0003.01
2022-04-16 04:10:00,,0826.8,4.99,0.00,27.0,25.9,00.0,36.0,28.7,08.4,0000.0,0004.52,0014.91,0003.00
2022-04-16 04:11:00,,0826.8,4.99,0.00,27.0,26.0,00.0,36.0,28.7,08.4,0000.0,0004.50,0014.84,0003.01
2022-04-16 04:12:00,,0826.8,4.99,0.00,27.0,26.0,00.0,36.0,28.7,08.4,0000.0,0004.54,0014.92,0003.03
2022-04-16 04:13:00,,0826.8,5.01,0.00,27.0,26.0,00.0,36.0,28.7,08.3,0000.0,0004.50,0014.88,0003.03
2022-04-16 04:14:00,,0826.9,5.00,0.00,26.9,26.0,00.0,35.9,28.7,08.3,0000.0,0004.50,0014.75,0003.05
2022-04-16 04:15:00,,0827.0,5.00,0.00,26.9,25.9,00.0,35.9,28.7,08.3,0000.0,0004.52,0013.68,0003.04
2022-04-16 04:16:00,,0826.9,5.00,0.00,26.9,26.0,00.0,35.9,28.7,08.3,0000.0,0004.54,0012.65,0003.04
2022-04-16 04:17:00,,0826.9,5.00,0.00,26.9,26.0,00.0,35.9,28.7,08.4,0000.0,0004.53,0012.26,0003.04
2022-04-16 04:18:00,,0826.9,5.00,0.00,26.9,26.0,00.0,35.9,28.6,08.3,0000.0,0004.54,0012.96,0003.05
2022-04-16 04:19:00,,0826.9,4.99,0.00,26.9,25.9,00.0,35.9,28.6,08.3,0000.0,0004.59,0013.82,0003.07
2022-04-16 04:20:00,,0826.9,5.00,0.00,26.9,25.9,00.0,35.9,28.6,08.3,0000.0,0004.59,0013.39,0003.09
2022-04-16 04:21:00,,0826.9,5.02,0.00,26.9,25.9,00.0,35.9,28.6,08.4,0000.0,0004.62,0013.51,0003.11
2022-04-16 04:22:00,,0826.9,5.00,0.00,26.8,25.8,00.0,35.8,28.6,08.4,0000.0,0004.58,0013.97,0003.12
2022-04-16 04:23:00,,0827.1,4.99,0.00,26.8,25.8,00.0,35.8,28.6,08.3,0000.0,0004.56,0014.25,0003.12
2022-04-16 04:24:00,,0826.9,5.00,0.00,26.8,25.8,00.0,35.8,28.6,08.3,0000.0,0004.57,0014.39,0003.12
2022-04-16 04:25:00,,0826.9,4.99,0.00,26.8,25.8,00.0,35.8,28.5,08.3,0000.0,0004.57,0015.59,0003.13
2022-04-16 04:26:00,,0827.0,5.00,0.00,26.8,25.8,00.0,35.8,28.5,08.3,0000.0,0004.54,0015.75,0003.14
2022-04-16 04:27:00,,0826.9,5.00,0.00,26.8,25.9,00.0,35.8,28.5,08.3,0000.0,0004.51,0015.47,0003.15
2022-04-16 04:28:00,,0827.0,4.99,0.00,26.8,25.9,00.0,35.8,28.5,08.3,0000.0,0004.52,0015.57,0003.15
2022-04-16 04:29:00,,0827.0,5.00,0.00,26.7,25.9,00.0,35.8,28.5,08.3,0000.0,0004.51,0015.39,0003.17
2022-04-16 04:30:00,,0827.0,4.99,0.00,26.7,25.9,00.0,35.8,28.5,08.3,0000.0,0004.50,0015.53,0003.16
2022-04-16 04:31:00,,0827.0,5.02,0.00,26.7,25.9,00.0,35.7,28.4,08.3,0000.0,0004.52,0016.35,0003.15
2022-04-16 04:32:00,,0827.0,5.00,0.00,26.7,25.9,00.0,35.7,28.4,08.3,0000.0,0004.50,0016.67,0003.15
2022-04-16 04:33:00,,0827.0,5.00,0.00,26.7,25.9,00.0,35.7,28.4,08.3,0000.0,0004.52,0016.84,0003.15
2022-04-16 04:34:00,,0827.0,5.00,0.00,26.7,25.9,00.0,35.7,28.4,08.3,0000.0,0004.58,0017.25,0003.16
2022-04-16 04:35:00,,0827.0,5.00,0.00,26.7,25.9,00.0,35.7,28.4,08.3,0000.0,0004.62,0018.52,0003.17
2022-04-16 04:36:00,,0827.0,5.00,0.00,26.7,25.9,00.0,35.7,28.4,08.3,0000.0,0004.65,0018.59,0003.17
2022-04-16 04:37:00,,0827.0,4.99,0.00,26.7,25.9,00.0,35.7,28.4,08.3,0000.0,0004.64,0018.60,0003.17
2022-04-16 04:38:00,,0827.0,5.00,0.00,26.7,25.9,00.0,35.7,28.4,08.3,0000.0,0004.70,0019.54,0003.19
2022-04-16 04:39:00,,0827.0,5.02,0.00,26.7,25.7,00.0,35.7,28.4,08.3,0000.0,0004.73,0020.58,0003.19
2022-04-16 04:40:00,,0827.0,4.99,0.00,26.6,25.7,00.0,35.7,28.4,08.3,0000.0,0004.78,0021.51,0003.19
2022-04-16 04:41:00,,0827.0,4.99,0.00,26.6,25.6,00.0,35.6,28.4,08.3,0000.0,0004.83,0021.80,0003.21
2022-04-16 04:42:00,,0827.0,5.01,0.00,26.6,25.6,00.0,35.6,28.3,08.3,0000.0,0004.87,0022.47,0003.22
2022-04-16 04:43:00,,0827.1,5.00,0.00,26.6,25.5,00.0,35.6,28.3,08.4,0000.0,0004.85,0021.57,0003.24
2022-04-16 04:44:00,,0827.0,5.00,0.00,26.6,25.5,00.0,35.6,28.3,08.4,0000.0,0004.93,0021.80,0003.25
2022-04-16 04:45:00,,0827.1,4.99,0.00,26.5,25.5,00.0,35.6,28.2,08.4,0000.0,0005.00,0022.37,0003.25
2022-04-16 04:46:00,,0827.0,5.00,0.00,26.5,25.5,00.0,35.6,28.3,08.4,0000.0,0004.99,0021.34,0003.26
2022-04-16 04:47:00,,0827.1,5.01,0.00,26.5,25.4,00.0,35.6,28.2,08.4,0000.0,0005.00,0021.89,0003.28
2022-04-16 04:48:00,,0827.1,5.00,0.00,26.5,25.4,00.0,35.5,28.3,08.4,0000.0,0004.98,0022.30,0003.29
2022-04-16 04:49:00,,0827.1,5.00,0.00,26.5,25.5,00.0,35.5,28.3,08.4,0000.0,0004.97,0022.79,0003.30
2022-04-16 04:50:00,,0827.1,5.00,0.00,26.5,25.5,00.0,35.5,28.3,08.4,0000.0,0005.00,0021.87,0003.32
2022-04-16 04:51:00,,0827.1,4.99,0.00,26.5,25.4,00.0,35.5,28.2,08.4,0000.0,0004.98,0021.03,0003.33
2022-04-16 04:52:00,,0827.1,5.01,0.00,26.5,25.4,00.0,35.5,28.2,08.4,0000.0,0005.01,0020.48,0003.32
2022-04-16 04:53:00,,0827.1,5.00,0.00,26.5,25.4,00.0,35.5,28.2,08.4,0000.0,0005.07,0019.88,0003.32
2022-04-16 04:54:00,,0827.1,5.00,0.00,26.5,25.4,00.0,35.5,28.2,08.5,0000.0,0005.09,0020.05,0003.33
2022-04-16 04:55:00,,0827.1,4.99,0.00,26.4,25.4,00.0,35.4,28.2,08.5,0000.0,0005.09,0020.48,0003.34
2022-04-16 04:56:00,,0827.1,4.99,0.00,26.4,25.5,00.0,35.4,28.2,08.5,0000.0,0005.02,0019.62,0003.34
2022-04-16 04:57:00,,0827.1,5.00,0.00,26.5,25.5,00.0,35.4,28.2,08.6,0000.0,0004.98,0019.46,0003.33
2022-04-16 04:58:00,,0827.1,5.00,0.00,26.4,25.4,00.0,35.4,28.2,08.6,0000.0,0004.97,0019.62,0003.31
2022-04-16 04:59:00,,0827.1,5.01,0.00,26.4,25.4,00.0,35.4,28.2,08.6,0000.0,0005.01,0019.44,0003.30
